Location: Unspecified
(54.1780°N, 0.0000°E)
Time: 10:49:21
(UTC+00:00)

Altair - Pass Details

Date: 19 June 2019
Orbit: 1501 x 1683 km, 47.2° (Epoch: 16 October)

Event Time Altitude Azimuth Distance (km) Brightness Sun altitude
Rises 04:22:52 0° 284° (WNW) 4,902 9.7 5.7°
Reaches altitude 10° 04:27:53 10° 263° (W) 3,932 9.1 6.3°
Maximum altitude 04:32:48 15° 234° (SW) 3,558 8.8 6.9°
Drops below altitude 10° 04:37:44 10° 204° (SSW) 3,939 9.2 7.5°
Sets 04:42:49 0° 183° (S) 4,917 9.8 8.2°
